Location: East Highlands
(34.1097°N, 117.1706°W)
Time: 07:53:47
(UTC+00:00)

Daily predictions for brighter satellites

Satellite Brightness Start Highest point End
(mag) Time Altitude Azimuth Time Altitude Azimuth Time Altitude Azimuth
Cosmos 2322 Rocket 4.3 12:03:51 15° NNE 12:06:49 22° ENE 12:11:10 10° ESE
Cosmos 2026 Rocket 4.3 12:09:44 10° S 12:15:39 60° E 12:21:38 10° NNE
Cosmos 1937 Rocket 4.2 12:17:46 46° SSE 12:17:46 46° SSE 12:21:22 10° SSE
ATLAS 2AS CENTAUR R/B 3.2 12:23:35 10° SSW 12:30:34 59° ESE 12:37:23 10° NE
OAO 2 Rocket 3.4 12:31:15 78° ENE 12:31:15 78° ENE 12:36:05 10° E
Cosmos 2058 Rocket 4.2 12:35:33 22° NNE 12:37:57 42° E 12:42:04 10° SSE
SL-16 R/B 2.2 12:36:15 45° N 12:38:00 76° ENE 12:43:40 10° SSE
Cosmos 1814 Rocket 3.9 12:33:44 10° SSW 12:38:56 90° ESE 12:44:15 10° NNE
Cosmos 2237 4.5 12:40:00 50° SW 12:40:00 50° SW 12:44:42 10° S
Cosmos 158 Rocket 4.0 12:37:33 10° SSW 12:42:52 81° ESE 12:48:07 10° NNE
OAO 3 Copernicus 4.1 12:42:48 79° NNW 12:42:57 80° N 12:47:59 10° E
Cosmos 1092 Rocket 3.8 12:42:32 10° S 12:48:49 81° W 12:55:05 10° N
Centaur D-1AR AC-48 4.4 12:37:59 20° WSW 12:49:18 39° SSW 12:54:35 10° SE
COSMO-SKYMED 1 4.4 12:45:51 10° SE 12:49:21 28° ENE 12:52:52 10° NNE
USA 59 Rocket 1.5 12:50:54 30° SW 12:50:54 30° SW 12:55:02 10° S
Cosmos-2242 3.5 12:48:41 24° NNE 12:51:03 55° E 12:55:07 10° SSE
NOSS 3-1 (A) 4.4 12:46:29 21° NNW 12:52:10 69° ENE 13:01:26 10° SE
Okean 1 3.9 12:52:55 30° NNE 12:54:15 47° E 12:57:41 10° SSE
Meteor 2-2 Rocket 4.5 12:50:50 10° N 12:56:36 72° E 13:02:27 10° SSE
Cosmos 1758 Rocket 4.4 12:52:48 10° SSE 12:57:03 49° E 13:01:18 10° NNE
COSMOS 2455 4.0 13:01:27 24° SW 13:01:27 24° SW 13:05:03 10° SSW
Meteor 1-26 Rocket 4.3 12:55:57 10° N 13:01:38 82° E 13:07:28 10° S
Cosmos 2278 3.6 13:01:19 30° NNW 13:04:09 74° WSW 13:09:45 10° SSE
Meteor 2-20 Rocket 4.4 12:58:49 10° N 13:04:32 76° E 13:10:16 10° S
Centaur AC-119 3.7 13:03:37 24° SSW 13:04:38 27° S 13:08:12 10° SE
ISS -3.6 13:08:36 46° SSW 13:09:27 72° SE 13:12:49 10° NE
Cosmos 405 Rocket 2.5 13:06:39 10° SSW 13:09:13 52° SSW 13:09:13 52° SSW
CZ-4 R/B 3.6 13:05:44 10° N 13:10:18 68° WNW 13:14:53 10° SSW
Cosmos 1626 Rocket 3.4 13:13:22 10° S 13:17:46 74° W 13:22:09 10° N
EPKM 3.8 13:17:00 17° SW 13:18:03 19° SSW 13:19:54 10° SE
SL-24 R/B 4.3 13:15:47 10° N 13:20:23 49° WNW 13:24:25 10° SSW
Cosmos 2360 Rocket 2.1 13:19:26 13° NNW 13:24:35 88° WSW 13:30:12 10° SSE
Cosmos 44 3.2 13:23:12 10° SSW 13:27:38 80° ESE 13:32:23 10° NNE
IRIDIUM 106 4.2 13:27:27 10° S 13:32:40 80° W 13:37:53 10° N
Cosmos 2151 3.0 13:28:47 10° S 13:32:50 77° E 13:36:56 10° N
BREEZE-M DEB (TANK) 3.9 13:30:26 10° SW 13:34:30 83° SE 13:50:33 10° NE
Centaur D AC-28 4.5 13:32:36 11° WSW 13:35:47 14° SW 13:38:31 10° SSW
OAO 3 Rocket 3.0 13:35:14 22° W 13:38:11 79° N 13:42:53 10° E
Cosmos 2344 3.9 13:29:48 10° SSW 13:38:30 72° ESE 13:45:42 10° NE
Cosmos 2219 Rocket 2.5 13:33:29 10° NNW 13:39:07 70° ENE 13:44:42 10° SSE
Helios 1A Rocket 2.2 13:35:49 10° S 13:39:08 81° WSW 13:42:30 10° NNW
NOSS 8 (A) 4.3 13:39:37 19° NNW 13:41:48 89° WSW 13:45:38 10° SSE
Cosmos 1125 Rocket 4.4 13:37:09 10° N 13:42:15 50° ENE 13:47:16 10° SE
Cosmos 2333 Rocket 2.7 13:38:26 15° NW 13:42:38 39° WSW 13:47:51 10° S
Cosmos 1484 Rocket 2.3 13:40:48 10° N 13:44:08 66° WNW 13:47:26 10° SSW
Cosmos 2322 Rocket 2.6 13:45:42 10° NW 13:51:00 44° WSW 13:56:18 10° S
ATLAS 3B R/B 4.4 13:44:36 10° NNW 13:51:19 31° NE 13:57:42 10° ESE
BREEZE-M DEB (TANK) 4.0 13:55:47 16° WNW 13:56:36 19° NNW 13:58:27 10° NNE
Cosmos 1602 Rocket 3.7 13:53:12 10° SSW 13:57:30 50° W 14:01:49 10° N
Cosmos 1812 Rocket 3.5 13:54:48 10° N 13:59:09 88° W 14:03:30 10° S
IRIS 3.9 13:58:06 10° WSW 14:01:03 84° SSE 14:03:59 10° ENE
Cosmos 2221 2.3 13:57:06 10° N 14:01:14 79° W 14:05:21 10° S
Cosmos 1437 Rocket 2.6 13:58:46 10° N 14:02:14 78° E 14:05:44 10° S
Meteor 1-25 Rocket 4.4 13:58:55 10° S 14:04:39 85° E 14:10:29 10° N
Cosmos 1842 3.9 14:04:41 10° N 14:07:53 47° E 14:11:04 10° SSE
Okean 1-7 Rocket 3.7 14:05:06 10° SSW 14:09:30 56° W 14:13:54 10° N
SL-4 R/B 1.3 14:07:47 10° NW 14:10:59 88° NE 14:14:07 10° SE
OAO 2 Rocket 3.4 14:10:23 10° W 14:15:37 86° N 14:20:45 10° E
Cosmos 1743 4.0 14:14:49 10° WSW 14:16:39 14° WNW 14:18:28 10° NW
IGS 5A 4.1 14:14:03 10° N 14:17:35 31° WNW 14:21:07 10° SW
ATLAS 2AS CENTAUR R/B 3.6 14:16:01 10° WSW 14:21:48 27° NW 14:27:31 10° N
Meteor 1-19 Rocket 4.4 14:16:31 10° NNW 14:22:24 70° W 14:28:21 10° S
CZ-3 R/B 4.3 14:27:17 10° WSW 14:29:58 11° WSW 14:32:10 10° SW
